EXS56AT EGBB-LEPA

Flight info

Callsign EXS56AT
Flight time N/A
Altitude 35000
Route ADMEX Y321 CPT UN859 SOPIL DCT BALAN DCT EVPOK DCT NARAK DCT GAI DCT LOMRA DCT ROCAN DCT IBRAP DCT LUKEV N13 LORES
Aircraft A21N/M-SDE2E3FGHIJ1RWXY/LB1

Departure

Time N/A
Airport Birmingham Airport (EGBB)

Arrival

Time 2026-05-04 11:13
Airport Palma de Mallorca Airport (LEPA)
Time Latitude Longitude Altitude Speed Heading
2026-05-04 09:34 50.08762 0.00411 33941 ft 432 kts 163°
2026-05-04 09:34 50.05886 0.01703 34093 ft 430 kts 167°
2026-05-04 09:34 50.02990 0.02825 34215 ft 429 kts 168°
2026-05-04 09:34 50.00088 0.03935 34320 ft 429 kts 168°
2026-05-04 09:35 49.94296 0.06187 34494 ft 430 kts 167°
2026-05-04 09:35 49.88493 0.08464 34683 ft 430 kts 167°
2026-05-04 09:37 49.68126 0.16419 35025 ft 431 kts 168°
2026-05-04 09:37 49.65255 0.17558 35026 ft 432 kts 167°
2026-05-04 09:38 49.59449 0.19915 35020 ft 432 kts 167°
2026-05-04 09:38 49.54590 0.21874 35021 ft 432 kts 167°
2026-05-04 09:39 49.48764 0.24210 35022 ft 432 kts 167°
2026-05-04 09:39 49.41993 0.26919 34996 ft 433 kts 167°
2026-05-04 09:40 49.37103 0.28874 34992 ft 432 kts 167°
2026-05-04 09:40 49.31273 0.31196 34985 ft 433 kts 167°
2026-05-04 09:42 49.08036 0.40968 34986 ft 433 kts 167°
2026-05-04 09:43 49.02227 0.43399 34971 ft 434 kts 167°
2026-05-04 09:43 48.96434 0.45816 34971 ft 429 kts 166°
2026-05-04 09:44 48.90649 0.48222 34977 ft 430 kts 166°
2026-05-04 09:46 48.67493 0.57564 34784 ft 432 kts 167°
2026-05-04 09:46 48.64573 0.58706 34471 ft 435 kts 167°
2026-05-04 09:46 48.61615 0.59862 34186 ft 430 kts 167°
2026-05-04 09:47 48.55858 0.62110 34232 ft 427 kts 167°
2026-05-04 09:49 48.35769 0.70210 34983 ft 429 kts 167°
2026-05-04 09:49 48.32884 0.71379 34985 ft 430 kts 167°
2026-05-04 09:51 48.12685 0.79402 34954 ft 428 kts 167°
2026-05-04 09:51 48.06904 0.81675 34957 ft 429 kts 167°
2026-05-04 09:52 48.01134 0.83936 34960 ft 428 kts 167°
2026-05-04 09:52 47.95382 0.86188 34946 ft 426 kts 167°
2026-05-04 09:53 47.89647 0.88423 34958 ft 426 kts 167°
2026-05-04 09:53 47.83908 0.90644 34958 ft 426 kts 167°
2026-05-04 09:54 47.78170 0.92868 34958 ft 427 kts 168°
2026-05-04 09:54 47.72417 0.95095 34958 ft 427 kts 167°
2026-05-04 09:55 47.66682 0.97310 34952 ft 426 kts 168°
2026-05-04 09:55 47.60939 0.99525 34959 ft 426 kts 168°
2026-05-04 09:56 47.55196 1.01731 34957 ft 426 kts 168°
2026-05-04 09:56 47.49452 1.03933 34962 ft 426 kts 168°
2026-05-04 09:57 47.43698 1.06039 34967 ft 426 kts 172°
2026-05-04 09:57 47.37824 1.06425 34954 ft 422 kts 182°
2026-05-04 09:58 47.31966 1.06229 34958 ft 420 kts 182°
2026-05-04 09:58 47.26124 1.06072 34956 ft 420 kts 182°
2026-05-04 10:00 47.02777 1.05520 34953 ft 419 kts 182°
2026-05-04 10:04 46.62000 1.03797 34957 ft 419 kts 183°
2026-05-04 10:04 46.56168 1.03550 34942 ft 419 kts 183°
2026-05-04 10:05 46.50328 1.03786 34949 ft 423 kts 173°
2026-05-04 10:05 46.44566 1.05644 34958 ft 424 kts 169°
2026-05-04 10:06 46.38823 1.07616 34955 ft 424 kts 169°
2026-05-04 10:06 46.33068 1.09539 34946 ft 425 kts 169°
2026-05-04 10:08 46.12875 1.16234 34957 ft 426 kts 170°
2026-05-04 10:08 46.07097 1.18144 34959 ft 426 kts 170°
2026-05-04 10:09 46.01333 1.20045 34954 ft 422 kts 170°
2026-05-04 10:09 45.95605 1.21928 34958 ft 423 kts 170°
2026-05-04 10:10 45.89857 1.23813 34966 ft 423 kts 170°
2026-05-04 10:10 45.84114 1.25697 34965 ft 423 kts 170°
2026-05-04 10:11 45.78369 1.27574 34964 ft 423 kts 170°
2026-05-04 10:11 45.72618 1.29447 34962 ft 424 kts 170°
2026-05-04 10:12 45.66863 1.31321 34958 ft 424 kts 170°
2026-05-04 10:12 45.61115 1.33187 34958 ft 424 kts 170°
2026-05-04 10:13 45.55361 1.35052 34954 ft 424 kts 171°
2026-05-04 10:13 45.49593 1.36917 34960 ft 425 kts 171°
2026-05-04 10:14 45.43868 1.38769 34958 ft 425 kts 171°
2026-05-04 10:16 45.20779 1.46179 34963 ft 426 kts 171°
2026-05-04 10:16 45.14991 1.48027 34958 ft 427 kts 171°
2026-05-04 10:17 45.09152 1.49887 34964 ft 427 kts 171°
2026-05-04 10:19 44.86090 1.57200 34958 ft 423 kts 171°
2026-05-04 10:19 44.80350 1.59010 34960 ft 423 kts 171°
2026-05-04 10:20 44.74608 1.60820 34956 ft 423 kts 171°
2026-05-04 10:20 44.68860 1.62626 34958 ft 423 kts 171°
2026-05-04 10:21 44.63113 1.64426 34961 ft 423 kts 171°
2026-05-04 10:21 44.57367 1.66213 34951 ft 424 kts 172°
2026-05-04 10:22 44.48725 1.68912 34964 ft 424 kts 172°
2026-05-04 10:23 44.42963 1.70707 34960 ft 424 kts 172°
2026-05-04 10:25 44.20763 1.76827 34956 ft 424 kts 175°
2026-05-04 10:25 44.14927 1.78111 34967 ft 425 kts 175°
2026-05-04 10:26 44.09089 1.79400 34966 ft 425 kts 175°
2026-05-04 10:26 44.03248 1.80683 34967 ft 425 kts 175°
2026-05-04 10:27 43.97401 1.81968 34957 ft 426 kts 175°
2026-05-04 10:27 43.91528 1.82804 34965 ft 423 kts 180°
2026-05-04 10:28 43.85657 1.83355 34972 ft 423 kts 180°
2026-05-04 10:28 43.79770 1.83918 34965 ft 424 kts 180°
2026-05-04 10:29 43.73883 1.84489 34975 ft 424 kts 180°
2026-05-04 10:29 43.67988 1.85056 34972 ft 424 kts 180°
2026-05-04 10:30 43.62136 1.85622 34977 ft 424 kts 180°
2026-05-04 10:30 43.56200 1.86192 34973 ft 425 kts 181°
2026-05-04 10:31 43.50305 1.86761 34985 ft 425 kts 181°
2026-05-04 10:32 43.29653 1.88743 34964 ft 425 kts 181°
2026-05-04 10:33 43.23754 1.89309 34967 ft 425 kts 181°
2026-05-04 10:33 43.17898 1.89866 34959 ft 425 kts 181°
2026-05-04 10:34 43.12049 1.90424 34961 ft 424 kts 181°
2026-05-04 10:34 43.06165 1.90981 34927 ft 424 kts 181°
2026-05-04 10:35 43.00291 1.91537 34936 ft 422 kts 182°
2026-05-04 10:35 42.94444 1.92092 34946 ft 421 kts 182°
2026-05-04 10:36 42.88602 1.92644 34946 ft 421 kts 182°
2026-05-04 10:36 42.82749 1.93198 34953 ft 422 kts 182°
2026-05-04 10:37 42.76901 1.93749 34956 ft 421 kts 182°
2026-05-04 10:37 42.71043 1.94301 34961 ft 422 kts 182°
2026-05-04 10:39 42.50679 2.00663 34952 ft 431 kts 172°
2026-05-04 10:40 42.44872 2.02756 34958 ft 432 kts 172°
2026-05-04 10:40 42.39066 2.04839 34971 ft 431 kts 172°
2026-05-04 10:41 42.33274 2.06908 34960 ft 431 kts 173°
2026-05-04 10:41 42.27471 2.08962 34953 ft 431 kts 173°
2026-05-04 10:42 42.21660 2.11019 34945 ft 431 kts 173°
2026-05-04 10:42 42.15865 2.13064 34943 ft 431 kts 173°
2026-05-04 10:43 42.10089 2.15099 34957 ft 430 kts 173°
2026-05-04 10:45 41.86956 2.23221 34952 ft 429 kts 173°
2026-05-04 10:45 41.81187 2.25247 34954 ft 429 kts 173°
2026-05-04 10:46 41.75423 2.27266 34960 ft 430 kts 173°
2026-05-04 10:46 41.69625 2.29293 34918 ft 430 kts 173°
2026-05-04 10:47 41.63882 2.31294 34934 ft 430 kts 173°
2026-05-04 10:47 41.58088 2.33311 34952 ft 430 kts 173°
2026-05-04 10:49 41.35007 2.41305 34955 ft 428 kts 174°
2026-05-04 10:50 41.29244 2.43294 34945 ft 427 kts 174°
2026-05-04 10:51 41.09287 2.50145 31301 ft 423 kts 173°
2026-05-04 10:52 41.06435 2.51121 30584 ft 424 kts 173°
2026-05-04 10:52 41.03564 2.52100 29767 ft 426 kts 173°
2026-05-04 10:52 41.00689 2.53081 28827 ft 429 kts 173°
2026-05-04 10:54 40.80079 2.60094 23591 ft 445 kts 171°
2026-05-04 10:54 40.77098 2.61109 22879 ft 440 kts 171°
2026-05-04 10:56 40.56701 2.67998 19451 ft 419 kts 170°
2026-05-04 10:56 40.53883 2.68945 18912 ft 417 kts 170°
2026-05-04 10:56 40.51079 2.69924 18362 ft 416 kts 167°
2026-05-04 10:57 40.48403 2.71366 17688 ft 417 kts 157°
2026-05-04 10:57 40.45860 2.73176 17049 ft 414 kts 154°
2026-05-04 10:57 40.43367 2.75019 16497 ft 409 kts 154°
2026-05-04 10:57 40.40891 2.76839 16005 ft 406 kts 155°
2026-05-04 10:58 40.38435 2.78628 15507 ft 402 kts 154°
2026-05-04 10:58 40.36001 2.80393 15013 ft 398 kts 154°
2026-05-04 10:58 40.33585 2.82142 14582 ft 395 kts 154°
2026-05-04 10:58 40.31187 2.83875 14193 ft 392 kts 154°
2026-05-04 10:59 40.28806 2.85592 13819 ft 390 kts 154°
2026-05-04 10:59 40.26438 2.87297 13400 ft 387 kts 154°
2026-05-04 10:59 40.24090 2.88989 12877 ft 383 kts 154°
2026-05-04 10:59 40.21794 2.90643 12281 ft 379 kts 154°
2026-05-04 11:00 40.19494 2.92302 11930 ft 367 kts 154°
2026-05-04 11:01 40.05812 3.02123 10214 ft 287 kts 154°
2026-05-04 11:02 40.04068 3.03368 9819 ft 286 kts 154°
2026-05-04 11:02 40.02324 3.04612 9395 ft 285 kts 154°
2026-05-04 11:05 39.78248 3.09668 4861 ft 246 kts 187°
2026-05-04 11:06 39.76551 3.09456 4596 ft 244 kts 187°
2026-05-04 11:06 39.74883 3.09251 4452 ft 236 kts 188°
2026-05-04 11:06 39.73266 3.09056 4446 ft 230 kts 188°
2026-05-04 11:06 39.71719 3.08768 4454 ft 220 kts 199°
2026-05-04 11:08 39.66061 2.98509 4226 ft 208 kts 237°
2026-05-04 11:10 39.60990 2.87728 2177 ft 166 kts 236°
2026-05-04 11:12 39.57460 2.80174 740 ft 128 kts 237°
2026-05-04 11:12 39.56988 2.79200 566 ft 129 kts 237°
2026-05-04 11:12 39.56524 2.78196 414 ft 128 kts 236°
2026-05-04 11:12 39.56061 2.77234 257 ft 127 kts 236°
2026-05-04 11:13 39.55583 2.76249 97 ft 129 kts 237°
2026-05-04 11:13 39.55138 2.75304 44 ft 113 kts 237°
2026-05-04 11:13 39.54825 2.74654 43 ft 56 kts 239°
2026-05-04 11:13 39.54707 2.74394 44 ft 24 kts 239°
2026-05-04 11:14 39.54678 2.74331 44 ft 25 kts 237°
2026-05-04 11:14 39.54549 2.73842 44 ft 11 kts 267°
2026-05-04 11:16 39.54894 2.74072 42 ft 7 kts 330°
2026-05-04 11:16 39.54944 2.74036 44 ft 9 kts 332°
2026-05-04 11:16 39.55006 2.73988 44 ft 11 kts 326°
2026-05-04 11:17 39.55079 2.73927 44 ft 13 kts 328°
2026-05-04 11:17 39.55165 2.73859 44 ft 15 kts 329°
2026-05-04 11:19 39.55468 2.73513 41 ft 8 kts 244°
2026-05-04 11:19 39.55441 2.73443 44 ft 10 kts 240°
2026-05-04 11:19 39.55408 2.73371 44 ft 10 kts 238°
2026-05-04 11:19 39.55369 2.73291 44 ft 9 kts 238°
2026-05-04 11:20 39.55349 2.73247 44 ft 6 kts 240°
2026-05-04 11:20 39.55353 2.73213 44 ft 1 kts 327°
2026-05-04 11:20 39.55364 2.73203 44 ft 3 kts 321°
2026-05-04 11:20 39.55386 2.73182 44 ft 5 kts 327°
2026-05-04 11:22 39.55420 2.73181 44 ft 0 kts 12°